Regional Weather Roundup
Issued by NWS

Home | Current Version | Previous Version | Text Only | Print | Product List | Glossary Off
Versions: 1 2 3 4 5 6 7 8 9 10 11 12 13 14 15 16 17 18 19 20 21 22 23 24 25 26 27 28 29 30 31 32 33 34 35 36 37 38 39 40 41 42 43 44 45 46 47 48 49 50

549
ASUS44 KLIX 281610
RWRLA
LOUISIANA WEATHER ROUNDUP
NATIONAL WEATHER SERVICE NEW ORLEANS LA
1000 AM CST FRI NOV 28 2014

NOTE: "FAIR" INDICATES FEW OR NO CLOUDS BELOW 12,000 FEET WITH NO
      SIGNIFICANT WEATHER AND/OR OBSTRUCTIONS TO VISIBILITY.
      SKY/WX - SKY CONDITION AND SIGNIFICANT WEATHER.
      TMP - AIR TEMPERATURE.    DP   - DEWPOINT TEMPERATURE.
      RH  - RELATIVE HUMIDITY.  PRES - PRESSURE.
      HX  - HEAT INDEX.         WCI  - WIND CHILL INDEX.

*  THESE STATIONS ARE NOT NWS OR FAA STATIONS AND ARE NOT UNDER
   NWS QUALITY CONTROL.

LAZ040-048-061>063-065-066-069-281700-
SOUTHEAST LOUISIANA

CITY           SKY/WX    TMP DP  RH WIND       PRES   REMARKS
N.O. AUDUBON     N/A     55  38  52 MISG        N/A
N.O. INTL ARPT SUNNY     52  36  54 E8        30.44R
N.O. LAKEFRONT SUNNY     52  39  61 E7        30.45S
N.O. DOWNTOWN* FAIR      52  36  54 E3        30.45S
SLIDELL        SUNNY     50  31  48 E9        30.44F
BATON ROUGE    SUNNY     50  32  50 E8        30.44S
BOOTHVILLE     SUNNY     56  45  66 NE9       30.43R
BELLE CHASSE   SUNNY     55  37  50 E9        30.44R
BOGALUSA*        N/A     49  32  51 E3        30.46F
NEW ROADS*     FAIR      48  33  54 E7        30.43F
GONZALES*      FAIR      53  36  52 E5        30.43F
HAMMOND*       SUNNY     50  30  46 E3        30.46F
HOUMA*         SUNNY     54  39  58 E8        30.43S
PORT FOURCHON* SUNNY     57  46  67 E12       30.44F

$$

LAZ041-044-053-054-281700-
SOUTHWEST LOUISIANA

CITY           SKY/WX    TMP DP  RH WIND       PRES   REMARKS
LAKE CHARLES   SUNNY     54  45  71 SE10      30.39S
LAFAYETTE      SUNNY     51  37  58 VRB6      30.42S
PATTERSON      SUNNY     54  37  54 NE9       30.44
SALT POINT       N/A     58  40  51 SE6       30.41S
NEW IBERIA     SUNNY     53  38  56 E8        30.43S
CHENAULT AIRPK SUNNY     54  45  71 E7        30.40S

$$

LAZ027-028-281700-
CENTRAL LOUISIANA

CITY           SKY/WX    TMP DP  RH WIND       PRES   REMARKS
FORT POLK      SUNNY     50  37  60 SE10      30.39S
ALEXANDRIA INT SUNNY     48  35  60 SE14      30.40S
ALEXANDRIA     SUNNY     50  36  58 SE9       30.41S

$$

LAZ001-002-281700-
NORTHWEST LOUISIANA

CITY           SKY/WX    TMP DP  RH WIND       PRES   REMARKS
SHREVEPORT     SUNNY     49  35  58 S12       30.35F
BARKSDALE AFB  SUNNY     48  35  60 S13       30.36F
DTN SHREVEPORT SUNNY     47  33  58 S12       30.36F

$$

LAZ014-016-281700-
NORTHEAST LOUISIANA

CITY           SKY/WX    TMP DP  RH WIND       PRES   REMARKS
MONROE         SUNNY     47  35  63 S10       30.41F
TALLULAH       SUNNY     47  32  56 SE12      30.42F

$$




USA.gov is the U.S. government's official web portal to all federal, state and local government web resources and services.